Newburgh, NY

8:40 PM EDT on August 17, 2017 (GMT -0400)
Stewart International

Weather History for KSWF - December, 2012

Change the Weather History Date:

Thursday, December 20, 2012

  Actual Average Record
Temperature  
Mean Temperature 32 °F -  
Max Temperature 41 °F 36 °F 55 °F (2002)
Min Temperature 23 °F 22 °F -7 °F (1980)
Degree Days  
Heating Degree Days 33    
Moisture  
Dew Point 28 °F    
Average Humidity 79    
Maximum Humidity 93    
Minimum Humidity 57    
Precipitation  
Precipitation 0.00 in - - ()
Sea Level Pressure  
Sea Level Pressure 30.09 in    
Wind  
Wind Speed 4 mph (ESE)    
Max Wind Speed 18 mph    
Max Gust Speed 25 mph    
Visibility 14 miles    
Events Rain    
Averages and records for this station are not official NWS values.
T = Trace of Precipitation, MM = Missing Value Source: NWS Daily Summary

Daily Weather History Graph

Daily Weather History Graph

Search for Another Location

Airport or City:

Trip Planner

Search our weather history database for the weather conditions in past years. The results will help you decide how hot, cold, wet, or windy it might be!

Date:

Astronomy

Dec. 20, 2012 Rise Set
Actual Time 7:19 AM EST 4:29 PM EST
Civil Twilight 6:47 AM EST 5:00 PM EST
Nautical Twilight 6:12 AM EST 5:35 PM EST
Astronomical Twilight 5:38 AM EST 6:09 PM EST
Moon 11:49 AM EST (12/20) No Moon Set
Length of Visible Light 10h 13m
Length of Day
9h 10m
First Quarter, 55% of the Moon is Illuminated
Dec 20
First Quarter
Dec 28
Full
Jan 4
Last Quarter
Jan 11
New
Jan 18
First Quarter

Hourly Weather History & Observations

Time (EST) Temp. Windchill Dew Point Humidity Pressure Visibility Wind Dir Wind Speed Gust Speed Precip Events Conditions
12:45 AM 28.4 °F - 24.8 °F 86% 30.12 in 10.0 mi Calm Calm - N/A   Clear
1:45 AM 26.6 °F - 24.8 °F 93% 30.15 in 10.0 mi Calm Calm - N/A   Clear
2:45 AM 26.6 °F - 24.8 °F 93% 30.16 in 10.0 mi Calm Calm - N/A   Clear
3:45 AM 24.8 °F - 23.0 °F 93% 30.14 in 10.0 mi Calm Calm - N/A   Clear
4:45 AM 26.6 °F - 24.8 °F 93% 30.15 in 10.0 mi Calm Calm - N/A   Clear
5:45 AM 24.8 °F 19.1 °F 23.0 °F 93% 30.17 in 10.0 mi Variable 4.6 mph - N/A   Clear
6:45 AM 23.0 °F - 21.2 °F 93% 30.19 in 20.0 mi Calm Calm - N/A   Clear
7:45 AM 26.6 °F - 23.0 °F 86% 30.19 in 20.0 mi Calm Calm - N/A   Clear
8:45 AM 32.0 °F 24.2 °F 26.6 °F 80% 30.21 in 20.0 mi ENE 9.2 mph - N/A   Clear
9:45 AM 35.6 °F 29.9 °F 26.6 °F 70% 30.20 in 20.0 mi East 6.9 mph - N/A   Clear
10:45 AM 37.4 °F 32.1 °F 26.6 °F 65% 30.20 in 20.0 mi East 6.9 mph - N/A   Scattered Clouds
11:45 AM 41.0 °F 36.4 °F 26.6 °F 57% 30.14 in 20.0 mi NE 6.9 mph - N/A   Scattered Clouds
12:45 PM 39.2 °F 32.0 °F 26.6 °F 61% 30.11 in 20.0 mi ESE 11.5 mph - N/A   Mostly Cloudy
1:45 PM 39.2 °F 33.6 °F 26.6 °F 61% 30.10 in 20.0 mi East 8.1 mph - N/A   Mostly Cloudy
3:55 PM 39.2 °F 37.0 °F 28.4 °F 65% 30.08 in 20.0 mi Variable 3.5 mph - N/A   Overcast
4:45 PM 39.2 °F 33.0 °F 28.4 °F 65% 30.05 in 20.0 mi SSE 9.2 mph - N/A   Overcast
5:45 PM 37.4 °F 30.8 °F 30.2 °F 75% 30.04 in 10.0 mi SSE 9.2 mph 13.8 mph N/A   Overcast
6:45 PM 39.2 °F 35.9 °F 32.0 °F 75% 30.06 in 10.0 mi Variable 4.6 mph - N/A   Mostly Cloudy
7:45 PM 39.2 °F 34.2 °F 32.0 °F 75% 30.02 in 10.0 mi ESE 6.9 mph - N/A   Overcast
8:45 PM 39.2 °F 33.6 °F 33.8 °F 81% 30.00 in 10.0 mi WSW 8.1 mph - N/A   Overcast
9:45 PM 39.2 °F 32.0 °F 35.6 °F 87% 29.95 in 10.0 mi SE 11.5 mph - N/A   Overcast
10:45 PM 39.2 °F 35.0 °F 35.6 °F 87% 29.91 in 10.0 mi East 5.8 mph - N/A   Overcast
11:45 PM 41.0 °F 32.2 °F 39.2 °F 93% 29.83 in 10.0 mi SE 18.4 mph 25.3 mph N/A Rain Rain